Minden, LA

4:08 PM CDT on August 28, 2016 (GMT -0500)
Minden

Weather History for KMNE - October, 2012

Change the Weather History Date:

Monday, October 29, 2012

  Actual Average (KBAD) Record (KBAD)
Temperature  
Mean Temperature 48 °F -  
Max Temperature 63 °F 70 °F 86 °F (2000)
Min Temperature 35 °F 51 °F 34 °F (2008)
Degree Days  
Heating Degree Days 16    
Moisture  
Dew Point 36 °F    
Average Humidity 70    
Maximum Humidity 95    
Minimum Humidity 33    
Precipitation  
Precipitation 0.00 in - - ()
Sea Level Pressure  
Sea Level Pressure 30.24 in    
Wind  
Wind Speed 1 mph ()    
Max Wind Speed 9 mph    
Max Gust Speed -    
Visibility 10.0 miles    
Events      
Averages and records for this station are not official NWS values.
T = Trace of Precipitation, MM = Missing Value Source: Averaged Metar Reports

Daily Weather History Graph

Daily Weather History Graph

Search for Another Location

Airport or City:

Trip Planner

Search our weather history database for the weather conditions in past years. The results will help you decide how hot, cold, wet, or windy it might be!

Date:

Astronomy

Oct. 29, 2012 Rise Set
Actual Time 7:28 AM CDT 6:24 PM CDT
Civil Twilight 7:03 AM CDT 6:49 PM CDT
Nautical Twilight 6:34 AM CDT 7:18 PM CDT
Astronomical Twilight 6:05 AM CDT 7:47 PM CDT
Moon 6:19 PM CDT (10/29) 7:18 AM CDT (10/29)
Length of Visible Light 11h 46m
Length of Day
10h 56m
Full, 100% of the Moon is Illuminated
Oct 29
Full
Oct 29
Full
Nov 6
Last Quarter
Nov 13
New
Nov 20
First Quarter

Hourly Weather History & Observations

Time (CDT) Temp. Windchill Dew Point Humidity Pressure Visibility Wind Dir Wind Speed Gust Speed Precip Events Conditions
12:15 AM 38.5 °F - 36.7 °F 93% 30.23 in 10.0 mi Calm Calm - N/A   Clear
12:35 AM 38.3 °F - 36.1 °F 92% 30.23 in 10.0 mi Calm Calm - N/A   Clear
12:55 AM 37.8 °F - 36.0 °F 93% 30.24 in 10.0 mi Calm Calm - N/A   Clear
1:15 AM 36.9 °F - 35.2 °F 94% 30.24 in 10.0 mi Calm Calm - N/A   Clear
1:35 AM 37.0 °F - 35.6 °F 95% 30.23 in 10.0 mi Calm Calm - N/A   Clear
1:55 AM 37.6 °F - 36.3 °F 95% 30.23 in 10.0 mi Calm Calm - N/A   Clear
2:15 AM 36.7 °F - 35.1 °F 94% 30.23 in 10.0 mi Calm Calm - N/A   Clear
2:35 AM 36.7 °F - 35.1 °F 94% 30.23 in 10.0 mi Calm Calm - N/A   Clear
2:55 AM 36.0 °F - 34.3 °F 94% 30.23 in 10.0 mi Calm Calm - N/A   Clear
3:15 AM 36.7 °F - 34.9 °F 93% 30.24 in 10.0 mi Calm Calm - N/A   Clear
3:35 AM 35.8 °F - 34.2 °F 94% 30.24 in 10.0 mi Calm Calm - N/A   Clear
4:15 AM 35.4 °F 32.6 °F 33.8 °F 94% 30.24 in 10.0 mi NNW 3.5 mph - N/A   Clear
4:35 AM 35.8 °F 33.0 °F 34.2 °F 94% 30.25 in 10.0 mi NNW 3.5 mph - N/A   Clear
4:55 AM 35.8 °F 33.0 °F 34.2 °F 94% 30.25 in 10.0 mi North 3.5 mph - N/A   Clear
5:15 AM 35.8 °F - 34.2 °F 94% 30.26 in 10.0 mi Calm Calm - N/A   Clear
5:55 AM 35.4 °F 32.6 °F 33.6 °F 93% 30.27 in 10.0 mi North 3.5 mph - N/A   Clear
6:15 AM 35.8 °F - 33.4 °F 91% 30.27 in 10.0 mi Calm Calm - N/A   Clear
6:35 AM 36.9 °F - 33.3 °F 87% 30.27 in 10.0 mi Calm Calm - N/A   Clear
6:55 AM 37.0 °F - 33.1 °F 86% 30.27 in 10.0 mi Calm Calm - N/A   Clear
7:15 AM 36.3 °F - 33.4 °F 89% 30.27 in 10.0 mi Calm Calm - N/A   Clear
7:35 AM 36.0 °F - 33.3 °F 90% 30.28 in 10.0 mi Calm Calm - N/A   Clear
7:55 AM 36.0 °F - 33.4 °F 91% 30.29 in 10.0 mi Calm Calm - N/A   Clear
8:15 AM 38.3 °F - 35.8 °F 91% 30.29 in 10.0 mi Calm Calm - N/A   Clear
8:35 AM 40.1 °F - 36.9 °F 88% 30.30 in 10.0 mi Calm Calm - N/A   Clear
8:55 AM 42.3 °F - 37.8 °F 84% 30.31 in 10.0 mi Calm Calm - N/A   Clear
9:15 AM 45.3 °F - 37.4 °F 74% 30.31 in 10.0 mi Calm Calm - N/A   Clear
9:35 AM 48.7 °F - 35.2 °F 60% 30.32 in 10.0 mi ENE 4.6 mph - N/A   Clear
9:55 AM 50.7 °F - 36.0 °F 57% 30.32 in 10.0 mi Calm Calm - N/A   Clear
10:15 AM 52.0 °F - 35.2 °F 53% 30.32 in 10.0 mi NE 5.8 mph - N/A   Clear
10:35 AM 52.9 °F - 34.7 °F 50% 30.33 in 10.0 mi NE 3.5 mph - N/A   Clear
10:55 AM 54.1 °F - 34.3 °F 47% 30.33 in 10.0 mi North 6.9 mph - N/A   Clear
11:15 AM 54.9 °F - 33.8 °F 45% 30.32 in 10.0 mi ENE 4.6 mph - N/A   Clear
11:35 AM 55.8 °F - 33.8 °F 44% 30.32 in 10.0 mi North 3.5 mph - N/A   Clear
11:55 AM 56.5 °F - 32.9 °F 41% 30.31 in 10.0 mi NNW 6.9 mph - N/A   Clear
12:35 PM 58.5 °F - 32.7 °F 38% 30.30 in 10.0 mi NNW 6.9 mph - N/A   Clear
12:55 PM 59.0 °F - 32.0 °F 36% 30.29 in 10.0 mi North 6.9 mph - N/A   Clear
1:15 PM 59.2 °F - 32.5 °F 37% 30.28 in 10.0 mi NNW 4.6 mph - N/A   Clear
1:35 PM 61.0 °F - 32.7 °F 35% 30.26 in 10.0 mi North 6.9 mph - N/A   Clear
1:55 PM 59.9 °F - 32.2 °F 35% 30.24 in 10.0 mi West 3.5 mph - N/A   Clear
2:15 PM 60.8 °F - 32.0 °F 34% 30.22 in 10.0 mi WNW 5.8 mph - N/A   Clear
2:35 PM 61.2 °F - 32.7 °F 34% 30.21 in 10.0 mi NE 4.6 mph - N/A   Clear
3:35 PM 62.6 °F - 32.7 °F 33% 30.19 in 10.0 mi North 9.2 mph - N/A   Clear
3:55 PM 62.6 °F - 33.3 °F 33% 30.19 in 10.0 mi North 6.9 mph - N/A   Clear
4:15 PM 62.4 °F - 33.3 °F 34% 30.19 in 10.0 mi North 9.2 mph - N/A   Clear
4:35 PM 62.2 °F - 33.4 °F 34% 30.18 in 10.0 mi NNE 4.6 mph - N/A   Clear
4:55 PM 61.9 °F - 32.5 °F 33% 30.18 in 10.0 mi North 5.8 mph - N/A   Clear
5:15 PM 61.3 °F - 32.7 °F 34% 30.18 in 10.0 mi Calm Calm - N/A   Clear
5:35 PM 60.8 °F - 35.1 °F 38% 30.17 in 10.0 mi NNE 3.5 mph - N/A   Clear
5:55 PM 59.2 °F - 37.2 °F 44% 30.17 in 10.0 mi Calm Calm - N/A   Clear
6:15 PM 56.1 °F - 40.5 °F 56% 30.17 in 10.0 mi Calm Calm - N/A   Clear
6:35 PM 52.7 °F - 43.3 °F 70% 30.17 in 10.0 mi Calm Calm - N/A   Clear
6:55 PM 50.4 °F - 42.1 °F 73% 30.17 in 10.0 mi Calm Calm - N/A   Clear
7:15 PM 49.6 °F - 41.7 °F 74% 30.17 in 10.0 mi Calm Calm - N/A   Clear
7:35 PM 48.7 °F - 41.9 °F 77% 30.17 in 10.0 mi Calm Calm - N/A   Clear
7:55 PM 47.3 °F - 42.6 °F 84% 30.17 in 10.0 mi Calm Calm - N/A   Clear
10:35 PM 41.7 °F - 39.6 °F 92% 30.18 in 10.0 mi Calm Calm - N/A   Clear
10:55 PM 41.9 °F - 39.7 °F 92% 30.17 in 10.0 mi Calm Calm - N/A   Clear
11:15 PM 41.9 °F - 39.7 °F 92% 30.17 in 10.0 mi Calm Calm - N/A   Clear
11:35 PM 41.9 °F - 39.9 °F 93% 30.16 in 10.0 mi Calm Calm - N/A   Clear
11:55 PM 41.0 °F - 39.2 °F 93% 30.15 in 10.0 mi Calm Calm - N/A   Clear